GW6374 Weather Reports


Display with metric or nautical units.
time (UTC)temp
F
wind
direction
speed
MPH
gust
MPH
rain 1hr
in
rain 24hr
in
rain mn
in
humidity
%
barometer
mb
20260509150421 52 96 10.0 13.0 0.00 0.00 0.00 85 1006.4
20260509145919 52 99 9.0 11.0 0.00 0.00 0.00 85 1006.6
20260509145419 52 96 9.0 11.0 0.00 0.00 0.00 84 1006.5
20260509144915 52 93 9.0 10.0 0.00 0.00 0.00 84 1006.6
20260509144412 52 98 6.0 8.0 0.00 0.00 0.00 85 1006.7
20260509143909 52 99 9.0 11.0 0.00 0.00 0.00 84 1006.8
20260509143407 53 82 10.0 11.0 0.00 0.00 0.00 80 1006.8
20260509142902 56 79 9.0 10.0 0.00 0.00 0.00 74 1006.9
20260509142359 61 314 1.0 3.0 0.00 0.00 0.00 65 1006.7
20260509141854 61 102 3.0 4.0 0.00 0.00 0.00 65 1006.9
20260509141352 60 98 3.0 4.0 0.00 0.00 0.00 69 1007.0
20260509140848 60 186 3.0 4.0 0.00 0.00 0.00 67 1006.8
20260509140345 60 108 3.0 4.0 0.00 0.00 0.00 70 1006.9
20260509135843 60 116 3.0 4.0 0.00 0.00 0.00 68 1007.0
20260509135341 61 117 4.0 9.0 0.00 0.00 0.00 66 1007.0
20260509134838 62 110 4.0 5.0 0.00 0.00 0.00 67 1007.0
20260509134335 61 134 4.0 4.0 0.00 0.00 0.00 67 1007.0
20260509133831 61 113 4.0 5.0 0.00 0.00 0.00 66 1007.0
20260509133328 60 105 3.0 5.0 0.00 0.00 0.00 69 1007.0
20260509132827 60 168 2.0 5.0 0.00 0.00 0.00 69 1007.0
20260509132325 59 158 3.0 4.0 0.00 0.00 0.00 71 1007.2
20260509131822 58 119 4.0 5.0 0.00 0.00 0.00 74 1007.1
20260509131319 57 118 2.0 4.0 0.00 0.00 0.00 72 1007.1
20260509130815 57 116 2.0 3.0 0.00 0.00 0.00 72 1007.3
20260509130311 56 110 3.0 4.0 0.00 0.00 0.00 74 1007.2
20260509125808 55 119 2.0 3.0 0.00 0.00 0.00 75 1007.4
20260509125307 55 94 2.0 3.0 0.00 0.00 0.00 76 1007.4
20260509124801 54 123 4.0 4.0 0.00 0.00 0.00 75 1007.1
20260509124257 54 133 2.0 4.0 0.00 0.00 0.00 75 1007.4
20260509123755 53 107 2.0 5.0 0.00 0.00 0.00 75 1007.4
20260509123252 53 136 2.0 4.0 0.00 0.00 0.00 74 1007.4
20260509122748 53 111 4.0 6.0 0.00 0.00 0.00 74 1007.6
20260509122245 52 115 4.0 4.0 0.00 0.00 0.00 76 1007.7
20260509121742 52 127 4.0 5.0 0.00 0.00 0.00 77 1007.7
20260509121239 51 120 3.0 5.0 0.00 0.00 0.00 79 1007.7
20260509120737 50 104 2.0 3.0 0.00 0.00 0.00 80 1007.6
20260509120235 50 103 3.0 3.0 0.00 0.00 0.00 80 1007.5
20260509115733 49 103 2.0 3.0 0.00 0.00 0.00 80 1007.5
20260509115229 49 120 2.0 3.0 0.00 0.00 0.00 82 1007.7
20260509114728 48 117 2.0 4.0 0.00 0.00 0.00 81 1007.5
20260509114226 48 118 3.0 3.0 0.00 0.00 0.00 81 1007.4
20260509113725 48 122 2.0 3.0 0.00 0.00 0.00 81 1007.5
20260509113221 47 113 2.0 3.0 0.00 0.00 0.00 81 1007.7
20260509112718 47 105 2.0 3.0 0.00 0.00 0.00 81 1007.7
20260509112215 47 113 3.0 3.0 0.00 0.00 0.00 82 1007.8
20260509111712 46 105 2.0 3.0 0.00 0.00 0.00 83 1007.7
20260509111209 46 111 3.0 3.0 0.00 0.00 0.00 83 1007.8
20260509110707 45 113 2.0 4.0 0.00 0.00 0.00 83 1007.9
20260509110203 44 111 3.0 3.0 0.00 0.00 0.00 82 1008.0
20260509105701 44 105 2.0 3.0 0.00 0.00 0.00 82 1007.6
20260509105158 44 120 2.0 4.0 0.00 0.00 0.00 81 1007.6
20260509104655 44 124 3.0 3.0 0.00 0.00 0.00 81 1007.6
20260509104152 44 118 3.0 4.0 0.00 0.00 0.00 81 1007.6
20260509103650 44 127 3.0 4.0 0.00 0.00 0.00 81 1007.7
20260509103147 43 128 2.0 4.0 0.00 0.00 0.00 81 1007.6
20260509102645 43 137 3.0 3.0 0.00 0.00 0.00 81 1007.5
20260509102142 43 141 3.0 4.0 0.00 0.00 0.00 81 1007.5
20260509101638 43 111 2.0 4.0 0.00 0.00 0.00 80 1007.5
20260509101135 42 125 3.0 4.0 0.00 0.00 0.00 79 1007.4
20260509100632 42 114 2.0 3.0 0.00 0.00 0.00 80 1007.3
20260509100130 42 133 3.0 4.0 0.00 0.00 0.00 79 1007.3
20260509095626 42 131 3.0 4.0 0.00 0.00 0.00 78 1007.5
20260509095123 42 137 3.0 4.0 0.00 0.00 0.00 77 1007.6
20260509094619 41 121 3.0 4.0 0.00 0.00 0.00 77 1007.5
20260509094117 41 136 4.0 4.0 0.00 0.00 0.00 76 1007.5
20260509093615 42 129 3.0 4.0 0.00 0.00 0.00 76 1007.7
20260509093112 42 123 3.0 3.0 0.00 0.00 0.00 76 1007.5
20260509092610 42 123 3.0 3.0 0.00 0.00 0.00 74 1007.5
20260509092108 42 114 2.0 3.0 0.00 0.00 0.00 73 1007.4
20260509091606 42 125 3.0 4.0 0.00 0.00 0.00 73 1007.5
20260509091101 42 139 3.0 4.0 0.00 0.00 0.00 73 1007.5
20260509090559 42 128 3.0 4.0 0.00 0.00 0.00 73 1007.4
20260509090057 42 135 3.0 4.0 0.00 0.00 0.00 73 1007.6
20260509085554 42 139 2.0 4.0 0.00 0.00 0.00 73 1007.5
20260509085050 42 148 3.0 4.0 0.00 0.00 0.00 73 1007.5
20260509084547 42 130 4.0 4.0 0.00 0.00 0.00 74 1007.7
20260509084044 42 155 2.0 4.0 0.00 0.00 0.00 74 1007.5
20260509083542 42 137 4.0 4.0 0.00 0.00 0.00 75 1007.8
20260509083038 42 126 3.0 4.0 0.00 0.00 0.00 75 1007.6
20260509082536 42 104 2.0 3.0 0.00 0.00 0.00 76 1007.6
20260509082033 42 98 2.0 3.0 0.00 0.00 0.00 75 1007.7
20260509081530 42 97 3.0 4.0 0.00 0.00 0.00 74 1007.7
20260509081026 43 135 3.0 4.0 0.00 0.00 0.00 73 1007.8
20260509080525 43 139 3.0 4.0 0.00 0.00 0.00 72 1007.9
20260509080022 43 148 2.0 4.0 0.00 0.00 0.00 71 1007.9
20260509075519 43 126 3.0 3.0 0.00 0.00 0.00 70 1008.0
20260509075017 43 118 2.0 4.0 0.00 0.00 0.00 71 1008.1
20260509074514 43 146 2.0 4.0 0.00 0.00 0.00 71 1008.1
20260509074010 42 115 3.0 4.0 0.00 0.00 0.00 70 1008.0
20260509073507 42 140 2.0 4.0 0.00 0.00 0.00 71 1008.0
20260509073003 42 150 3.0 4.0 0.00 0.00 0.00 71 1008.1
20260509072500 41 141 3.0 4.0 0.00 0.00 0.00 72 1008.3
20260509071957 41 143 3.0 4.0 0.00 0.00 0.00 74 1008.3
20260509071453 41 116 3.0 4.0 0.00 0.00 0.00 75 1008.3
20260509070952 41 108 2.0 4.0 0.00 0.00 0.00 75 1008.3
20260509070448 41 118 3.0 4.0 0.00 0.00 0.00 75 1008.4
20260509065943 41 117 3.0 3.0 0.00 0.00 0.00 74 1008.4
20260509065440 42 112 2.0 3.0 0.00 0.00 0.00 74 1008.5
20260509064936 42 108 2.0 3.0 0.00 0.00 0.00 74 1008.7
20260509064435 42 126 3.0 4.0 0.00 0.00 0.00 71 1008.7
20260509063933 42 144 3.0 4.0 0.00 0.00 0.00 71 1008.6
20260509063432 42 130 3.0 4.0 0.00 0.00 0.00 72 1008.8
20260509062930 42 143 4.0 4.0 0.00 0.00 0.00 73 1008.9
20260509062427 42 134 3.0 4.0 0.00 0.00 0.00 73 1008.7
20260509061925 42 141 4.0 4.0 0.00 0.00 0.00 74 1008.9
20260509061422 42 136 3.0 4.0 0.00 0.00 0.00 75 1008.9
20260509060919 42 137 3.0 4.0 0.00 0.00 0.00 76 1009.2
20260509060416 42 121 3.0 5.0 0.00 0.00 0.00 77 1009.3
20260509055911 41 128 4.0 5.0 0.00 0.00 0.00 77 1009.2
20260509055407 41 134 4.0 4.0 0.00 0.00 0.00 77 1009.2
20260509054904 41 133 3.0 4.0 0.00 0.00 0.00 77 1009.2
20260509054401 41 145 4.0 4.0 0.00 0.00 0.00 78 1009.2
20260509053859 41 130 4.0 4.0 0.00 0.00 0.00 79 1009.2
20260509053356 42 136 3.0 4.0 0.00 0.00 0.00 79 1009.5
20260509052854 42 114 2.0 3.0 0.00 0.00 0.00 79 1009.5
20260509052351 42 112 2.0 4.0 0.00 0.00 0.00 78 1009.7
20260509051849 42 131 4.0 4.0 0.00 0.00 0.00 77 1009.7
20260509051347 42 144 3.0 4.0 0.00 0.00 0.00 76 1009.6
20260509050843 42 134 3.0 4.0 0.00 0.00 0.00 76 1009.7
20260509050340 42 132 4.0 4.0 0.00 0.00 0.00 77 1009.8
20260509045837 42 126 4.0 4.0 0.00 0.00 0.00 77 1009.9
20260509045334 42 124 3.0 4.0 0.00 0.00 0.00 79 1010.0
20260509044831 42 119 3.0 3.0 0.00 0.00 0.00 80 1009.9
20260509044329 42 123 4.0 4.0 0.00 0.00 0.00 79 1010.0
20260509043825 42 134 4.0 4.0 0.00 0.00 0.00 78 1010.0
20260509043321 42 134 4.0 4.0 0.00 0.00 0.00 78 1010.1
20260509042817 42 123 3.0 4.0 0.00 0.00 0.00 78 1010.1
20260509042314 42 146 3.0 4.0 0.00 0.00 0.00 79 1010.1
20260509041810 42 135 2.0 4.0 0.00 0.00 0.00 80 1010.3
20260509041308 42 124 3.0 4.0 0.00 0.00 0.00 82 1010.2
20260509040806 42 141 3.0 4.0 0.00 0.00 0.00 82 1010.1
20260509040303 42 131 3.0 4.0 0.00 0.00 0.00 83 1010.4
20260509035800 42 129 3.0 4.0 0.00 0.04 0.04 82 1010.3
20260509035256 42 139 4.0 4.0 0.00 0.04 0.04 81 1010.3
20260509034753 43 136 3.0 4.0 0.00 0.04 0.04 80 1010.2
20260509034251 43 129 3.0 4.0 0.00 0.04 0.04 79 1010.3
20260509033748 43 144 3.0 4.0 0.00 0.04 0.04 78 1010.4
20260509033245 43 142 3.0 4.0 0.00 0.04 0.04 77 1010.3
20260509032741 43 136 3.0 4.0 0.00 0.04 0.04 77 1010.4
20260509032238 44 126 3.0 4.0 0.00 0.04 0.04 76 1010.3
20260509031736 44 124 2.0 3.0 0.00 0.04 0.04 76 1010.4
20260509031233 44 123 3.0 4.0 0.00 0.04 0.04 75 1010.4
20260509030731 44 142 3.0 4.0 0.00 0.04 0.04 74 1010.4
20260509030229 44 130 4.0 4.0 0.00 0.04 0.04 75 1010.5
20260509025725 45 125 3.0 4.0 0.00 0.04 0.04 75 1010.6
20260509025221 45 118 2.0 4.0 0.00 0.04 0.04 73 1010.5
20260509024716 45 132 3.0 4.0 0.00 0.04 0.04 73 1010.5
20260509024212 45 145 4.0 4.0 0.00 0.04 0.04 73 1010.5
20260509023710 45 143 4.0 5.0 0.00 0.04 0.04 73 1010.4
20260509023207 46 151 2.0 4.0 0.00 0.04 0.04 72 1010.4
20260509022703 46 142 3.0 4.0 0.00 0.04 0.04 72 1010.4
20260509022201 46 159 2.0 4.0 0.00 0.04 0.04 72 1010.4
20260509021658 46 140 2.0 4.0 0.00 0.04 0.04 72 1010.5
20260509021155 46 141 3.0 4.0 0.00 0.04 0.04 72 1010.5
20260509020653 46 125 3.0 4.0 0.00 0.04 0.04 73 1010.5
20260509020150 46 118 4.0 4.0 0.00 0.04 0.04 73 1010.6
20260509015648 46 116 3.0 5.0 0.00 0.04 0.04 74 1010.6
20260509015146 46 109 3.0 4.0 0.00 0.04 0.04 74 1010.4
20260509014642 46 129 4.0 4.0 0.00 0.04 0.04 75 1010.5
20260509014138 46 117 2.0 4.0 0.00 0.04 0.04 75 1010.6
20260509013636 46 115 3.0 3.0 0.00 0.04 0.04 74 1010.7
20260509013131 47 130 3.0 4.0 0.00 0.04 0.04 73 1010.6
20260509012628 47 128 3.0 4.0 0.00 0.04 0.04 73 1010.6
20260509012125 47 125 4.0 4.0 0.00 0.04 0.04 72 1010.5
20260509011623 48 112 3.0 5.0 0.00 0.04 0.04 70 1010.6
20260509011120 48 126 2.0 3.0 0.00 0.04 0.04 68 1010.5
20260509010617 49 112 2.0 4.0 0.00 0.04 0.04 67 1010.5
20260509010114 49 138 4.0 5.0 0.00 0.04 0.04 65 1010.1
20260509005612 49 117 4.0 5.0 0.00 0.04 0.04 64 1010.3
20260509005107 50 133 3.0 4.0 0.00 0.04 0.04 64 1010.3
20260509004604 50 136 4.0 4.0 0.00 0.04 0.04 61 1010.0
20260509004101 50 120 3.0 4.0 0.00 0.04 0.04 61 1009.9
20260509003559 51 117 4.0 4.0 0.00 0.04 0.04 60 1010.0
20260509003056 51 129 4.0 4.0 0.00 0.04 0.04 59 1009.9
20260509002554 51 122 3.0 4.0 0.00 0.04 0.04 58 1009.8
20260509002051 52 123 4.0 4.0 0.00 0.04 0.04 56 1009.7
20260509001548 53 112 3.0 5.0 0.00 0.04 0.04 55 1009.7
20260509001044 53 139 3.0 6.0 0.00 0.04 0.04 53 1009.8
20260509000542 54 115 2.0 6.0 0.00 0.04 0.04 52 1009.7
20260509000038 54 119 3.0 5.0 0.00 0.04 0.04 52 1009.8
20260508235536 54 112 3.0 5.0 0.00 0.04 0.04 51 1009.9
20260508235032 54 124 3.0 4.0 0.00 0.04 0.04 52 1009.9
20260508234530 54 125 3.0 5.0 0.00 0.04 0.04 54 1009.9
20260508234027 53 128 5.0 5.0 0.00 0.04 0.04 57 1009.8
20260508233526 53 103 7.0 8.0 0.00 0.04 0.04 62 1009.6
20260508233023 52 116 4.0 8.0 0.00 0.04 0.04 57 1009.7
20260508232520 52 112 4.0 6.0 0.00 0.04 0.04 59 1009.6
20260508232017 52 107 7.0 11.0 0.00 0.04 0.04 60 1009.8
20260508231514 51 117 2.0 4.0 0.00 0.04 0.04 62 1009.6
20260508231011 51 108 3.0 8.0 0.00 0.04 0.04 64 1009.8
20260508230508 51 109 4.0 4.0 0.00 0.04 0.04 56 1009.6
20260508230004 50 114 3.0 5.0 0.00 0.04 0.04 58 1009.7
20260508225502 50 139 4.0 5.0 0.00 0.04 0.04 70 1009.7
20260508224958 50 103 6.0 12.0 0.00 0.04 0.04 74 1009.7
20260508224456 50 97 11.0 13.0 0.00 0.04 0.04 76 1009.8
20260508223953 51 87 9.0 10.0 0.00 0.04 0.04 73 1010.0
20260508223451 51 99 7.0 9.0 0.00 0.04 0.04 65 1010.0
20260508222948 50 103 6.0 12.0 0.00 0.04 0.04 66 1009.9
20260508222446 50 100 11.0 15.0 0.00 0.04 0.04 75 1009.9
20260508221942 50 93 10.0 13.0 0.00 0.04 0.04 74 1009.8
20260508221438 50 94 9.0 12.0 0.00 0.04 0.04 71 1009.8
20260508220934 50 100 9.0 13.0 0.00 0.04 0.04 72 1009.9
20260508220431 50 101 9.0 12.0 0.00 0.04 0.04 73 1009.9
20260508215927 50 95 9.0 13.0 0.00 0.04 0.04 69 1010.1
20260508215424 50 94 13.0 13.0 0.00 0.04 0.04 71 1010.1
20260508214921 50 92 10.0 11.0 0.00 0.04 0.04 69 1009.9
20260508214419 50 100 9.0 12.0 0.00 0.04 0.04 67 1010.1
20260508213914 50 98 9.0 12.0 0.00 0.04 0.04 70 1010.1
20260508213412 50 95 9.0 13.0 0.00 0.04 0.04 66 1010.0
20260508212907 50 92 9.0 11.0 0.00 0.04 0.04 74 1010.1
20260508212404 50 94 10.0 11.0 0.00 0.04 0.04 70 1010.1
20260508211900 50 92 9.0 11.0 0.00 0.04 0.04 72 1010.2
20260508211355 50 104 9.0 11.0 0.00 0.04 0.04 72 1010.1
20260508210854 50 86 8.0 8.0 0.00 0.04 0.04 73 1010.1
20260508210350 50 83 8.0 9.0 0.00 0.04 0.04 73 1010.3
20260508205846 50 96 8.0 11.0 0.00 0.04 0.04 72 1010.3
20260508205343 50 84 8.0 10.0 0.00 0.04 0.04 60 1010.3
20260508204839 50 79 7.0 10.0 0.00 0.04 0.04 67 1010.4
20260508204336 50 84 7.0 9.0 0.00 0.04 0.04 62 1010.4
20260508203832 50 84 7.0 8.0 0.00 0.04 0.04 60 1010.3
20260508203329 50 78 7.0 8.0 0.00 0.04 0.04 66 1010.4
20260508202824 50 69 6.0 8.0 0.00 0.04 0.04 59 1010.5
20260508202322 50 68 7.0 7.0 0.00 0.04 0.04 60 1010.5
20260508201819 50 70 6.0 8.0 0.00 0.04 0.04 57 1010.6
20260508201316 50 65 6.0 8.0 0.00 0.04 0.04 61 1010.6
20260508200812 50 70 6.0 8.0 0.00 0.04 0.04 65 1010.7
20260508200309 50 72 7.0 8.0 0.00 0.04 0.04 59 1010.9
20260508195805 49 71 7.0 8.0 0.00 0.04 0.04 62 1011.0
20260508195305 49 71 6.0 8.0 0.00 0.04 0.04 62 1010.9
20260508194758 49 84 5.0 7.0 0.00 0.04 0.04 60 1010.8
20260508194255 49 89 4.0 6.0 0.00 0.04 0.04 61 1011.0
20260508193752 48 74 4.0 5.0 0.00 0.04 0.04 65 1011.4
20260508193249 48 88 4.0 5.0 0.00 0.04 0.04 70 1011.1
20260508192745 48 91 5.0 5.0 0.00 0.04 0.04 71 1011.3
20260508192242 48 92 4.0 6.0 0.00 0.04 0.04 71 1011.4
20260508191740 48 89 5.0 6.0 0.00 0.04 0.04 73 1011.5
20260508191237 48 87 4.0 4.0 0.00 0.04 0.04 71 1011.5
20260508190734 47 79 2.0 3.0 0.00 0.04 0.04 72 1011.7
20260508190229 47 45 3.0 4.0 0.00 0.04 0.04 76 1011.8
20260508185726 46 44 1.0 2.0 0.00 0.04 0.04 78 1011.7
20260508185224 46 287 1.0 5.0 0.00 0.04 0.04 76 1011.8
20260508184721 46 336 3.0 5.0 0.00 0.04 0.04 80 1011.8
20260508184218 46 22 4.0 4.0 0.00 0.04 0.04 82 1012.0
20260508183715 46 28 5.0 5.0 0.00 0.04 0.04 80 1011.8
20260508183211 45 26 4.0 6.0 0.00 0.04 0.04 79 1011.6
20260508182707 45 13 4.0 4.0 0.00 0.04 0.04 81 1011.7
20260508182204 45 39 6.0 6.0 0.00 0.04 0.04 81 1011.9
20260508181700 45 64 4.0 6.0 0.00 0.04 0.04 83 1011.6
20260508181157 45 55 5.0 7.0 0.00 0.04 0.04 84 1011.8
20260508180653 45 45 6.0 6.0 0.00 0.04 0.04 83 1011.8
20260508180151 44 10 3.0 4.0 0.00 0.04 0.04 83 1011.9
20260508175647 44 23 4.0 5.0 0.00 0.04 0.04 85 1011.9
20260508175144 44 355 4.0 7.0 0.00 0.04 0.04 85 1012.1
20260508174642 44 0 5.0 7.0 0.00 0.04 0.04 85 1012.0
20260508174138 44 341 8.0 8.0 0.00 0.04 0.04 84 1012.0
20260508173635 44 347 6.0 9.0 0.00 0.04 0.04 84 1012.0
20260508173131 45 358 7.0 8.0 0.00 0.04 0.04 83 1012.0
20260508172628 45 16 8.0 9.0 0.00 0.04 0.04 83 1012.0
20260508172125 45 36 9.0 9.0 0.00 0.04 0.04 82 1012.1
20260508171621 46 37 7.0 7.0 0.00 0.04 0.04 82 1011.8
20260508171118 46 56 5.0 7.0 0.00 0.04 0.04 80 1012.0
20260508170615 46 5 5.0 6.0 0.00 0.04 0.04 80 1012.0
20260508170113 46 17 5.0 8.0 0.00 0.04 0.04 80 1012.0
20260508165609 46 27 6.0 8.0 0.00 0.04 0.04 80 1012.1
20260508165106 46 26 6.0 8.0 0.00 0.04 0.04 81 1012.0
20260508164603 46 1 5.0 6.0 0.00 0.04 0.04 80 1011.9
20260508164100 46 333 4.0 6.0 0.00 0.04 0.04 80 1012.2
20260508163557 46 8 5.0 6.0 0.00 0.04 0.04 77 1012.3
20260508163054 46 41 7.0 9.0 0.00 0.04 0.04 77 1012.2
20260508162550 46 352 2.0 6.0 0.00 0.04 0.04 78 1012.2
20260508162048 46 39 6.0 8.0 0.00 0.04 0.04 75 1012.3
20260508161545 47 37 6.0 8.0 0.00 0.04 0.04 79 1012.2
20260508161042 47 62 8.0 8.0 0.00 0.04 0.04 78 1012.4
20260508160540 48 20 4.0 5.0 0.00 0.04 0.04 75 1012.5
20260508160037 48 14 2.0 5.0 0.00 0.04 0.04 73 1012.5
20260508155534 48 337 0.0 2.0 0.00 0.04 0.04 71 1012.6
20260508155031 48 287 2.0 3.0 0.00 0.04 0.04 72 1012.6
20260508154528 48 245 1.0 4.0 0.00 0.04 0.04 70 1012.5
20260508154025 49 280 1.0 6.0 0.00 0.04 0.04 67 1012.6
20260508153522 49 128 3.0 4.0 0.00 0.04 0.04 69 1012.7
20260508153018 50 289 0.0 5.0 0.00 0.04 0.04 65 1012.7
20260508152515 50 195 3.0 4.0 0.00 0.04 0.04 66 1012.6
20260508152011 48 123 5.0 5.0 0.00 0.04 0.04 73 1012.6
20260508151508 48 167 2.0 5.0 0.00 0.04 0.04 71 1012.7
20260508151004 49 277 4.0 6.0 0.00 0.04 0.04 72 1012.6